Regional Weather Roundup
Issued by NWS

Home | Current Version | Previous Version | Text Only | Print | Product List | Glossary Off
Versions: 1 2 3 4 5 6 7 8 9 10 11 12 13 14 15 16 17 18 19 20 21 22 23 24 25 26 27 28 29 30 31 32 33 34 35 36 37 38 39 40 41 42 43 44 45 46 47 48 49 50

425
ASUS44 KLIX 202307
RWRLA
LOUISIANA WEATHER ROUNDUP
NATIONAL WEATHER SERVICE NEW ORLEANS LA
600 PM CDT MON APR 20 2015

NOTE: "FAIR" INDICATES FEW OR NO CLOUDS BELOW 12,000 FEET WITH NO
      SIGNIFICANT WEATHER AND/OR OBSTRUCTIONS TO VISIBILITY.
      SKY/WX - SKY CONDITION AND SIGNIFICANT WEATHER.
      TMP - AIR TEMPERATURE.    DP   - DEWPOINT TEMPERATURE.
      RH  - RELATIVE HUMIDITY.  PRES - PRESSURE.
      HX  - HEAT INDEX.         WCI  - WIND CHILL INDEX.

*  THESE STATIONS ARE NOT NWS OR FAA STATIONS AND ARE NOT UNDER
   NWS QUALITY CONTROL.

LAZ040-048-061>063-065-066-069-210000-
SOUTHEAST LOUISIANA

CITY           SKY/WX    TMP DP  RH WIND       PRES   REMARKS
N.O. AUDUBON     N/A     75  60  57 MISG        N/A
N.O. INTL ARPT PTSUNNY   74  54  49 NW13      29.87R
N.O. LAKEFRONT PTSUNNY   76  57  51 W15       29.87R
SLIDELL        PTSUNNY   74  56  53 NW6       29.85R
BATON ROUGE    PTSUNNY   70  50  49 NW6       29.90R
BOOTHVILLE     PTSUNNY   77  62  59 SW7       29.85S
BELLE CHASSE   PTSUNNY   75  53  46 NW6       29.86R
BOGALUSA*        N/A     74  50  43 NW8       29.89R
GALLIANO*      MOCLDY    76  58  53 N8        29.87R
NEW ROADS*     FAIR      70  48  46 NW7       29.91R
GONZALES*      FAIR      71  54  55 NW8       29.89R
HAMMOND*       PTSUNNY   72  50  46 NW9       29.90R
HOUMA*         MOSUNNY   75  59  57 NW8       29.87R
PORT FOURCHON* CLEAR     79  57  47 W8        29.90R

$$

LAZ041-044-053-054-210000-
SOUTHWEST LOUISIANA

CITY           SKY/WX    TMP DP  RH WIND       PRES   REMARKS
LAKE CHARLES   MOSUNNY   74  47  38 N13       29.90R
LAFAYETTE      PTSUNNY   71  49  45 N13       29.90R
PATTERSON      PTSUNNY   72  52  49 N6        29.90R
SALT POINT       N/A     73  53  49 N8        29.88R
NEW IBERIA     PTSUNNY   71  49  45 N15       29.90R
CHENAULT AIRPK NOT AVBL

$$

LAZ027-028-210000-
CENTRAL LOUISIANA

CITY           SKY/WX    TMP DP  RH WIND       PRES   REMARKS
FORT POLK      MOSUNNY   70  42  36 N7        29.91R
ALEXANDRIA INT MOSUNNY   68  48  48 NW8       29.90S
ALEXANDRIA     MOSUNNY   71  43  36 NW6       29.91R

$$

LAZ001-002-210000-
NORTHWEST LOUISIANA

CITY           SKY/WX    TMP DP  RH WIND       PRES   REMARKS
SHREVEPORT     MOSUNNY   70  37  29 N10       29.92S
BARKSDALE AFB  SUNNY     70  37  30 N9        29.92S
DTN SHREVEPORT SUNNY     68  38  33 NW3       29.93S

$$

LAZ014-016-210000-
NORTHEAST LOUISIANA

CITY           SKY/WX    TMP DP  RH WIND       PRES   REMARKS
MONROE         SUNNY     70  42  36 NW10      29.91S
TALLULAH       SUNNY     70  42  36 VRB7G16   29.90R

$$




USA.gov is the U.S. government's official web portal to all federal, state and local government web resources and services.